| time (UTC) | temp F | wind direction | speed MPH | gust MPH | rain 1hr in | rain 24hr in | rain mn in | humidity % | barometer mb |
| 20260506091044 | 58 | 250 | 1.0 | 9.0 | 0.00 | 0.00 | 0.00 | 68 | 1015.5 |
| 20260506090543 | 58 | 191 | 1.0 | 12.0 | 0.00 | 0.00 | 0.00 | 68 | 1015.5 |
| 20260506090039 | 58 | 267 | 2.0 | 13.0 | 0.00 | 0.00 | 0.00 | 68 | 1015.4 |
| 20260506085538 | 58 | 191 | 1.0 | 7.0 | 0.00 | 0.00 | 0.00 | 66 | 1015.4 |
| 20260506085037 | 59 | 191 | 1.0 | 12.0 | 0.00 | 0.00 | 0.00 | 65 | 1015.4 |
| 20260506084544 | 59 | 263 | 2.0 | 12.0 | 0.00 | 0.00 | 0.00 | 65 | 1015.3 |
| 20260506084036 | 59 | 230 | 5.0 | 14.0 | 0.00 | 0.00 | 0.00 | 66 | 1015.2 |
| 20260506083538 | 59 | 254 | 6.0 | 14.0 | 0.00 | 0.00 | 0.00 | 66 | 1015.2 |
| 20260506083036 | 59 | 273 | 7.0 | 14.0 | 0.00 | 0.00 | 0.00 | 66 | 1015.1 |
| 20260506082538 | 59 | 229 | 3.0 | 14.0 | 0.00 | 0.00 | 0.00 | 66 | 1015.1 |
| 20260506082034 | 59 | 269 | 5.0 | 15.0 | 0.00 | 0.00 | 0.00 | 66 | 1015.1 |
| 20260506081536 | 59 | 233 | 6.0 | 21.0 | 0.00 | 0.00 | 0.00 | 66 | 1015.0 |
| 20260506081035 | 59 | 273 | 7.0 | 21.0 | 0.00 | 0.00 | 0.00 | 66 | 1014.9 |
| 20260506080534 | 59 | 191 | 4.0 | 21.0 | 0.00 | 0.00 | 0.00 | 66 | 1014.9 |
| 20260506073030 | 59 | 255 | 7.0 | 18.0 | 0.00 | 0.00 | 0.00 | 66 | 1014.7 |
| 20260506072533 | 59 | 246 | 10.0 | 19.0 | 0.00 | 0.00 | 0.00 | 66 | 1014.6 |
| 20260506072031 | 59 | 237 | 8.0 | 19.0 | 0.00 | 0.00 | 0.00 | 66 | 1014.6 |
| 20260506071528 | 59 | 258 | 7.0 | 17.0 | 0.00 | 0.00 | 0.00 | 65 | 1014.5 |
| 20260506071027 | 59 | 191 | 5.0 | 19.0 | 0.00 | 0.00 | 0.00 | 65 | 1014.6 |
| 20260506070528 | 59 | 31 | 10.0 | 23.0 | 0.00 | 0.00 | 0.00 | 65 | 1014.5 |
| 20260506062025 | 59 | 262 | 9.0 | 19.0 | 0.00 | 0.00 | 0.00 | 66 | 1014.1 |
| 20260506061522 | 59 | 253 | 11.0 | 18.0 | 0.00 | 0.00 | 0.00 | 66 | 1014.1 |
| 20260506061021 | 59 | 191 | 6.0 | 22.0 | 0.00 | 0.00 | 0.00 | 66 | 1014.2 |
| 20260506060521 | 59 | 314 | 11.0 | 22.0 | 0.00 | 0.00 | 0.00 | 66 | 1014.2 |
| 20260506051017 | 59 | 191 | 7.0 | 23.0 | 0.00 | 0.00 | 0.00 | 66 | 1013.5 |
| 20260506050517 | 59 | 267 | 3.0 | 14.0 | 0.00 | 0.00 | 0.00 | 66 | 1013.6 |
| 20260506045015 | 59 | 191 | 3.0 | 17.0 | 0.00 | 0.00 | 0.00 | 65 | 1013.3 |
| 20260506044515 | 59 | 191 | 5.0 | 17.0 | 0.00 | 0.00 | 0.00 | 65 | 1013.3 |
| 20260506044016 | 59 | 267 | 6.0 | 15.0 | 0.00 | 0.00 | 0.00 | 66 | 1013.2 |
| 20260506043520 | 59 | 265 | 6.0 | 17.0 | 0.00 | 0.00 | 0.00 | 66 | 1013.2 |
| 20260506043016 | 59 | 191 | 8.0 | 24.0 | 0.00 | 0.00 | 0.00 | 67 | 1013.1 |
| 20260506042516 | 59 | 186 | 12.0 | 24.0 | 0.00 | 0.00 | 0.00 | 67 | 1013.0 |
| 20260506042016 | 59 | 231 | 10.0 | 25.0 | 0.00 | 0.00 | 0.00 | 67 | 1013.0 |
| 20260506041516 | 59 | 278 | 15.0 | 25.0 | 0.00 | 0.00 | 0.00 | 66 | 1012.9 |
| 20260506041014 | 59 | 220 | 9.0 | 23.0 | 0.00 | 0.00 | 0.00 | 67 | 1013.0 |
| 20260506040514 | 59 | 253 | 7.0 | 22.0 | 0.00 | 0.00 | 0.00 | 66 | 1013.0 |
| 20260506040021 | 59 | 301 | 7.0 | 18.0 | 0.00 | 0.00 | 0.00 | 66 | 1013.0 |
| 20260506035515 | 59 | 191 | 5.0 | 17.0 | 0.00 | 0.00 | 0.00 | 66 | 1012.8 |
| 20260506035015 | 59 | 191 | 4.0 | 15.0 | 0.00 | 0.00 | 0.00 | 66 | 1012.8 |
| 20260506034520 | 59 | 5 | 4.0 | 16.0 | 0.00 | 0.00 | 0.00 | 65 | 1012.8 |
| 20260506034014 | 59 | 353 | 4.0 | 19.0 | 0.00 | 0.00 | 0.00 | 66 | 1012.6 |
| 20260506033513 | 59 | 260 | 9.0 | 21.0 | 0.00 | 0.00 | 0.00 | 66 | 1012.5 |
| 20260506033013 | 59 | 254 | 8.0 | 22.0 | 0.00 | 0.00 | 0.00 | 65 | 1012.4 |
| 20260506032513 | 59 | 271 | 5.0 | 19.0 | 0.00 | 0.00 | 0.00 | 66 | 1012.4 |
| 20260506032013 | 59 | 191 | 9.0 | 28.0 | 0.00 | 0.00 | 0.00 | 66 | 1012.3 |
| 20260506031513 | 59 | 258 | 11.0 | 28.0 | 0.00 | 0.00 | 0.00 | 66 | 1012.3 |
| 20260506031013 | 59 | 298 | 12.0 | 25.0 | 0.00 | 0.00 | 0.00 | 66 | 1012.2 |
| 20260506030513 | 59 | 246 | 12.0 | 23.0 | 0.00 | 0.00 | 0.00 | 65 | 1012.1 |
| 20260506030026 | 60 | 262 | 8.0 | 21.0 | 0.00 | 0.00 | 0.00 | 65 | 1012.1 |
| 20260506025512 | 60 | 260 | 9.0 | 26.0 | 0.00 | 0.00 | 0.00 | 65 | 1011.9 |
| 20260506025012 | 60 | 191 | 14.0 | 30.0 | 0.00 | 0.00 | 0.00 | 64 | 1011.9 |
| 20260506024530 | 60 | 244 | 12.0 | 30.0 | 0.00 | 0.00 | 0.00 | 64 | 1011.7 |
| 20260506024012 | 60 | 262 | 6.0 | 30.0 | 0.00 | 0.00 | 0.00 | 65 | 1011.7 |
| 20260506023512 | 60 | 258 | 13.0 | 30.0 | 0.00 | 0.00 | 0.00 | 64 | 1011.6 |
| 20260506023014 | 60 | 191 | 10.0 | 30.0 | 0.00 | 0.00 | 0.00 | 63 | 1011.6 |
| 20260506022511 | 61 | 271 | 15.0 | 30.0 | 0.00 | 0.00 | 0.00 | 63 | 1011.5 |
| 20260506022011 | 61 | 293 | 13.0 | 22.0 | 0.00 | 0.00 | 0.00 | 64 | 1011.4 |
| 20260506021511 | 61 | 265 | 13.0 | 29.0 | 0.00 | 0.00 | 0.00 | 63 | 1011.4 |
| 20260506021013 | 61 | 286 | 12.0 | 25.0 | 0.00 | 0.00 | 0.00 | 62 | 1011.4 |
| 20260506020510 | 61 | 267 | 10.0 | 25.0 | 0.00 | 0.00 | 0.00 | 62 | 1011.4 |
| 20260506020010 | 61 | 271 | 15.0 | 25.0 | 0.00 | 0.00 | 0.00 | 61 | 1011.4 |
| 20260506015510 | 61 | 250 | 12.0 | 28.0 | 0.00 | 0.00 | 0.00 | 62 | 1011.3 |
| 20260506015010 | 62 | 262 | 17.0 | 27.0 | 0.00 | 0.00 | 0.00 | 61 | 1011.3 |
| 20260506014509 | 62 | 259 | 12.0 | 24.0 | 0.00 | 0.00 | 0.00 | 61 | 1011.3 |
| 20260506014010 | 62 | 242 | 10.0 | 30.0 | 0.00 | 0.00 | 0.00 | 60 | 1011.4 |
| 20260506013512 | 62 | 259 | 12.0 | 30.0 | 0.00 | 0.00 | 0.00 | 60 | 1011.3 |
| 20260506013013 | 62 | 191 | 15.0 | 32.0 | 0.00 | 0.00 | 0.00 | 60 | 1011.3 |
| 20260506012510 | 62 | 301 | 13.0 | 28.0 | 0.00 | 0.00 | 0.00 | 60 | 1011.2 |
| 20260506012009 | 62 | 249 | 9.0 | 28.0 | 0.00 | 0.00 | 0.00 | 60 | 1011.3 |
| 20260506011510 | 63 | 266 | 9.0 | 28.0 | 0.00 | 0.00 | 0.00 | 59 | 1011.2 |
| 20260506011008 | 63 | 232 | 11.0 | 27.0 | 0.00 | 0.00 | 0.00 | 59 | 1011.2 |
| 20260506010509 | 63 | 191 | 9.0 | 22.0 | 0.00 | 0.00 | 0.00 | 59 | 1011.3 |
| 20260506010011 | 63 | 270 | 10.0 | 26.0 | 0.00 | 0.00 | 0.00 | 59 | 1011.1 |
| 20260506005509 | 63 | 311 | 10.0 | 22.0 | 0.00 | 0.00 | 0.00 | 59 | 1011.3 |
| 20260506005008 | 63 | 317 | 10.0 | 31.0 | 0.00 | 0.00 | 0.00 | 58 | 1011.2 |
| 20260506004508 | 63 | 222 | 12.0 | 31.0 | 0.00 | 0.00 | 0.00 | 59 | 1011.1 |
| 20260506004009 | 63 | 293 | 11.0 | 22.0 | 0.00 | 0.00 | 0.00 | 58 | 1011.2 |
| 20260506003508 | 63 | 276 | 10.0 | 26.0 | 0.00 | 0.00 | 0.00 | 58 | 1011.2 |
| 20260506003008 | 64 | 239 | 13.0 | 26.0 | 0.00 | 0.00 | 0.00 | 57 | 1011.2 |
| 20260506002508 | 64 | 236 | 9.0 | 23.0 | 0.00 | 0.00 | 0.00 | 57 | 1011.2 |
| 20260506002008 | 64 | 267 | 10.0 | 23.0 | 0.00 | 0.00 | 0.00 | 56 | 1011.0 |
| 20260506001508 | 65 | 191 | 11.0 | 23.0 | 0.00 | 0.00 | 0.00 | 56 | 1011.1 |
| 20260506001007 | 65 | 295 | 12.0 | 25.0 | 0.00 | 0.00 | 0.00 | 56 | 1011.0 |
| 20260506000508 | 65 | 258 | 11.0 | 25.0 | 0.00 | 0.00 | 0.00 | 55 | 1011.1 |
| 20260506000006 | 65 | 248 | 12.0 | 30.0 | 0.00 | 0.00 | 0.00 | 55 | 1011.0 |
| 20260505235507 | 65 | 275 | 11.0 | 29.0 | 0.00 | 0.00 | 0.00 | 55 | 1011.1 |
| 20260505235007 | 65 | 268 | 12.0 | 29.0 | 0.00 | 0.00 | 0.00 | 56 | 1011.2 |
| 20260505234507 | 65 | 186 | 10.0 | 21.0 | 0.00 | 0.00 | 0.00 | 55 | 1011.3 |
| 20260505234011 | 66 | 243 | 11.0 | 23.0 | 0.00 | 0.00 | 0.00 | 55 | 1011.4 |
| 20260505233506 | 66 | 4 | 9.0 | 25.0 | 0.00 | 0.00 | 0.00 | 55 | 1011.4 |
| 20260505233006 | 66 | 244 | 10.0 | 25.0 | 0.00 | 0.00 | 0.00 | 55 | 1011.4 |
| 20260505232506 | 66 | 281 | 12.0 | 27.0 | 0.00 | 0.00 | 0.00 | 55 | 1011.5 |
| 20260505232006 | 66 | 262 | 13.0 | 27.0 | 0.00 | 0.00 | 0.00 | 55 | 1011.4 |
| 20260505231506 | 66 | 224 | 12.0 | 25.0 | 0.00 | 0.00 | 0.00 | 55 | 1011.4 |
| 20260505231009 | 66 | 269 | 13.0 | 25.0 | 0.00 | 0.00 | 0.00 | 55 | 1011.4 |
| 20260505230505 | 66 | 243 | 12.0 | 22.0 | 0.00 | 0.00 | 0.00 | 55 | 1011.5 |
| 20260505230018 | 66 | 238 | 13.0 | 24.0 | 0.00 | 0.00 | 0.00 | 54 | 1011.6 |
| 20260505225506 | 66 | 267 | 12.0 | 22.0 | 0.00 | 0.00 | 0.00 | 54 | 1011.5 |
| 20260505225006 | 66 | 191 | 13.0 | 29.0 | 0.00 | 0.00 | 0.00 | 55 | 1011.5 |
| 20260505224506 | 66 | 260 | 11.0 | 29.0 | 0.00 | 0.00 | 0.00 | 55 | 1011.6 |
| 20260505224008 | 66 | 279 | 13.0 | 23.0 | 0.00 | 0.00 | 0.00 | 55 | 1011.7 |
| 20260505223504 | 66 | 267 | 12.0 | 22.0 | 0.00 | 0.00 | 0.00 | 56 | 1011.7 |
| 20260505223004 | 67 | 226 | 12.0 | 23.0 | 0.00 | 0.00 | 0.00 | 54 | 1011.8 |
| 20260505222504 | 67 | 267 | 13.0 | 24.0 | 0.00 | 0.00 | 0.00 | 56 | 1011.8 |
| 20260505222006 | 66 | 260 | 12.0 | 25.0 | 0.00 | 0.00 | 0.00 | 55 | 1011.8 |
| 20260505221504 | 66 | 264 | 12.0 | 24.0 | 0.00 | 0.00 | 0.00 | 55 | 1011.8 |
| 20260505221003 | 67 | 191 | 14.0 | 24.0 | 0.00 | 0.00 | 0.00 | 54 | 1011.9 |
| 20260505220504 | 66 | 300 | 14.0 | 26.0 | 0.00 | 0.00 | 0.00 | 55 | 1011.9 |
| 20260505220003 | 66 | 237 | 14.0 | 29.0 | 0.00 | 0.00 | 0.00 | 56 | 1012.0 |
| 20260505215503 | 66 | 258 | 12.0 | 29.0 | 0.00 | 0.00 | 0.00 | 56 | 1012.1 |
| 20260505215004 | 66 | 269 | 15.0 | 25.0 | 0.00 | 0.00 | 0.00 | 55 | 1012.1 |
| 20260505214506 | 66 | 265 | 13.0 | 26.0 | 0.00 | 0.00 | 0.00 | 54 | 1012.1 |
| 20260505214006 | 67 | 266 | 16.0 | 25.0 | 0.00 | 0.00 | 0.00 | 54 | 1012.1 |
| 20260505213503 | 66 | 265 | 12.0 | 25.0 | 0.00 | 0.00 | 0.00 | 55 | 1012.2 |
| 20260505213003 | 67 | 294 | 14.0 | 25.0 | 0.00 | 0.00 | 0.00 | 54 | 1012.1 |
| 20260505212504 | 66 | 243 | 13.0 | 28.0 | 0.00 | 0.00 | 0.00 | 55 | 1012.2 |
| 20260505212002 | 67 | 266 | 14.0 | 24.0 | 0.00 | 0.00 | 0.00 | 55 | 1012.2 |
| 20260505211502 | 67 | 232 | 15.0 | 30.0 | 0.00 | 0.00 | 0.00 | 55 | 1012.2 |
| 20260505211002 | 66 | 271 | 14.0 | 30.0 | 0.00 | 0.00 | 0.00 | 55 | 1012.3 |
| 20260505210501 | 67 | 282 | 13.0 | 22.0 | 0.00 | 0.00 | 0.00 | 55 | 1012.4 |
| 20260505210002 | 66 | 264 | 14.0 | 28.0 | 0.00 | 0.00 | 0.00 | 55 | 1012.3 |
| 20260505205501 | 66 | 257 | 15.0 | 28.0 | 0.00 | 0.00 | 0.00 | 53 | 1012.3 |
| 20260505205000 | 66 | 235 | 14.0 | 28.0 | 0.00 | 0.00 | 0.00 | 55 | 1012.5 |
| 20260505204500 | 66 | 263 | 12.0 | 27.0 | 0.00 | 0.00 | 0.00 | 54 | 1012.5 |
| 20260505204000 | 66 | 231 | 15.0 | 27.0 | 0.00 | 0.00 | 0.00 | 55 | 1012.5 |
| 20260505203500 | 66 | 274 | 13.0 | 25.0 | 0.00 | 0.00 | 0.00 | 56 | 1012.6 |
| 20260505203118 | 66 | 262 | 14.0 | 25.0 | 0.00 | 0.00 | 0.00 | 54 | 1012.6 |
| 20260505203002 | 66 | 241 | 14.0 | 25.0 | 0.00 | 0.00 | 0.00 | 53 | 1012.5 |
| 20260505202600 | 66 | 269 | 11.0 | 27.0 | 0.00 | 0.00 | 0.00 | 53 | 1012.5 |
| 20260505202059 | 66 | 325 | 13.0 | 27.0 | 0.00 | 0.00 | 0.00 | 54 | 1012.6 |
| 20260505201559 | 66 | 166 | 13.0 | 27.0 | 0.00 | 0.00 | 0.00 | 55 | 1012.7 |
| 20260505201058 | 66 | 232 | 13.0 | 24.0 | 0.00 | 0.00 | 0.00 | 55 | 1012.8 |
| 20260505200600 | 66 | 252 | 10.0 | 24.0 | 0.00 | 0.00 | 0.00 | 54 | 1012.8 |
| 20260505200100 | 66 | 191 | 11.0 | 25.0 | 0.00 | 0.00 | 0.00 | 56 | 1012.8 |
| 20260505195558 | 65 | 269 | 13.0 | 27.0 | 0.00 | 0.00 | 0.00 | 56 | 1012.8 |
| 20260505195055 | 65 | 242 | 12.0 | 27.0 | 0.00 | 0.00 | 0.00 | 57 | 1012.9 |
| 20260505194607 | 65 | 311 | 13.0 | 27.0 | 0.00 | 0.00 | 0.00 | 56 | 1012.9 |
| 20260505194057 | 65 | 265 | 14.0 | 26.0 | 0.00 | 0.00 | 0.00 | 56 | 1013.0 |
| 20260505193555 | 65 | 235 | 13.0 | 26.0 | 0.00 | 0.00 | 0.00 | 57 | 1013.1 |
| 20260505193053 | 65 | 234 | 16.0 | 24.0 | 0.00 | 0.00 | 0.00 | 55 | 1013.2 |
| 20260505192553 | 65 | 321 | 11.0 | 24.0 | 0.00 | 0.00 | 0.00 | 56 | 1013.2 |
| 20260505192051 | 65 | 244 | 12.0 | 23.0 | 0.00 | 0.00 | 0.00 | 58 | 1013.3 |
| 20260505191551 | 65 | 191 | 13.0 | 21.0 | 0.00 | 0.00 | 0.00 | 57 | 1013.2 |
| 20260505191050 | 64 | 267 | 13.0 | 23.0 | 0.00 | 0.00 | 0.00 | 59 | 1013.2 |
| 20260505190550 | 64 | 277 | 12.0 | 23.0 | 0.00 | 0.00 | 0.00 | 57 | 1013.3 |
| 20260505190051 | 64 | 259 | 12.0 | 26.0 | 0.00 | 0.00 | 0.00 | 58 | 1013.2 |
| 20260505185549 | 64 | 267 | 15.0 | 27.0 | 0.00 | 0.00 | 0.00 | 57 | 1013.3 |
| 20260505185046 | 64 | 270 | 13.0 | 27.0 | 0.00 | 0.00 | 0.00 | 57 | 1013.3 |
| 20260505184545 | 64 | 255 | 12.0 | 25.0 | 0.00 | 0.00 | 0.00 | 57 | 1013.3 |
| 20260505184044 | 64 | 297 | 12.0 | 21.0 | 0.00 | 0.00 | 0.00 | 58 | 1013.4 |
| 20260505183545 | 64 | 227 | 15.0 | 25.0 | 0.00 | 0.00 | 0.00 | 57 | 1013.4 |
| 20260505183047 | 64 | 255 | 12.0 | 24.0 | 0.00 | 0.00 | 0.00 | 56 | 1013.4 |
| 20260505182541 | 64 | 251 | 10.0 | 25.0 | 0.00 | 0.00 | 0.00 | 58 | 1013.5 |
| 20260505182039 | 64 | 235 | 12.0 | 25.0 | 0.00 | 0.00 | 0.00 | 58 | 1013.4 |
| 20260505181539 | 63 | 265 | 14.0 | 25.0 | 0.00 | 0.00 | 0.00 | 58 | 1013.5 |
| 20260505181037 | 63 | 229 | 14.0 | 24.0 | 0.00 | 0.00 | 0.00 | 58 | 1013.5 |
| 20260505180536 | 63 | 256 | 11.0 | 24.0 | 0.00 | 0.00 | 0.00 | 59 | 1013.6 |
| 20260505180035 | 63 | 227 | 14.0 | 23.0 | 0.00 | 0.00 | 0.00 | 59 | 1013.5 |
| 20260505175533 | 63 | 250 | 13.0 | 27.0 | 0.00 | 0.00 | 0.00 | 59 | 1013.5 |
| 20260505175032 | 63 | 264 | 14.0 | 25.0 | 0.00 | 0.00 | 0.00 | 59 | 1013.4 |
| 20260505174531 | 62 | 266 | 12.0 | 22.0 | 0.00 | 0.00 | 0.00 | 59 | 1013.5 |
| 20260505174030 | 62 | 244 | 13.0 | 23.0 | 0.00 | 0.00 | 0.00 | 60 | 1013.5 |
| 20260505173530 | 62 | 246 | 13.0 | 25.0 | 0.00 | 0.00 | 0.00 | 61 | 1013.5 |
| 20260505173040 | 62 | 284 | 13.0 | 25.0 | 0.00 | 0.00 | 0.00 | 62 | 1013.5 |
| 20260505172529 | 61 | 219 | 12.0 | 25.0 | 0.00 | 0.00 | 0.00 | 63 | 1013.5 |
| 20260505172029 | 62 | 237 | 16.0 | 25.0 | 0.00 | 0.00 | 0.00 | 62 | 1013.4 |
| 20260505171528 | 62 | 207 | 13.0 | 24.0 | 0.00 | 0.00 | 0.00 | 60 | 1013.4 |
| 20260505171029 | 61 | 274 | 11.0 | 23.0 | 0.00 | 0.00 | 0.00 | 64 | 1013.5 |
| 20260505170527 | 61 | 245 | 12.0 | 22.0 | 0.00 | 0.00 | 0.00 | 63 | 1013.5 |
| 20260505170028 | 60 | 262 | 12.0 | 22.0 | 0.00 | 0.00 | 0.00 | 64 | 1013.5 |
| 20260505165526 | 60 | 262 | 11.0 | 25.0 | 0.00 | 0.00 | 0.00 | 65 | 1013.5 |
| 20260505165027 | 60 | 242 | 12.0 | 28.0 | 0.00 | 0.00 | 0.00 | 64 | 1013.5 |
| 20260505164543 | 60 | 269 | 11.0 | 28.0 | 0.00 | 0.00 | 0.00 | 65 | 1013.5 |
| 20260505164023 | 59 | 260 | 7.0 | 28.0 | 0.00 | 0.00 | 0.00 | 66 | 1013.5 |
| 20260505163521 | 59 | 258 | 11.0 | 28.0 | 0.00 | 0.00 | 0.00 | 67 | 1013.5 |
| 20260505163020 | 59 | 228 | 14.0 | 23.0 | 0.00 | 0.00 | 0.00 | 66 | 1013.5 |
| 20260505162520 | 60 | 341 | 9.0 | 23.0 | 0.00 | 0.00 | 0.00 | 65 | 1013.4 |
| 20260505162020 | 60 | 269 | 12.0 | 22.0 | 0.00 | 0.00 | 0.00 | 64 | 1013.4 |
| 20260505161519 | 60 | 258 | 11.0 | 22.0 | 0.00 | 0.00 | 0.00 | 65 | 1013.4 |
| 20260505161019 | 60 | 260 | 6.0 | 22.0 | 0.00 | 0.00 | 0.00 | 64 | 1013.4 |
| 20260505160518 | 60 | 262 | 9.0 | 23.0 | 0.00 | 0.00 | 0.00 | 65 | 1013.3 |
| 20260505153012 | 57 | 191 | 5.0 | 17.0 | 0.00 | 0.00 | 0.00 | 69 | 1013.3 |
| 20260505152510 | 57 | 191 | 6.0 | 17.0 | 0.00 | 0.00 | 0.00 | 70 | 1013.4 |
| 20260505152007 | 57 | 314 | 5.0 | 18.0 | 0.00 | 0.00 | 0.00 | 70 | 1013.3 |
| 20260505151506 | 56 | 236 | 7.0 | 19.0 | 0.00 | 0.00 | 0.00 | 70 | 1013.3 |
| 20260505151005 | 56 | 273 | 8.0 | 19.0 | 0.00 | 0.00 | 0.00 | 70 | 1013.1 |
| 20260505150504 | 57 | 240 | 6.0 | 19.0 | 0.00 | 0.00 | 0.00 | 70 | 1013.3 |
| 20260505140549 | 55 | 269 | 8.0 | 18.0 | 0.00 | 0.00 | 0.00 | 72 | 1012.8 |
| 20260505125040 | 56 | 271 | 3.0 | 8.0 | 0.00 | 0.00 | 0.00 | 68 | 1012.3 |
| 20260505124539 | 56 | 260 | 2.0 | 9.0 | 0.00 | 0.00 | 0.00 | 68 | 1012.2 |
| 20260505124039 | 57 | 251 | 2.0 | 8.0 | 0.00 | 0.00 | 0.00 | 67 | 1012.2 |
| 20260505123536 | 57 | 271 | 0.0 | 12.0 | 0.00 | 0.00 | 0.00 | 67 | 1012.1 |
| 20260505123036 | 57 | 270 | 4.0 | 13.0 | 0.00 | 0.00 | 0.00 | 68 | 1012.1 |
| 20260505122539 | 57 | 269 | 2.0 | 7.0 | 0.00 | 0.00 | 0.00 | 66 | 1012.0 |
| 20260505122037 | 57 | 258 | 1.0 | 7.0 | 0.00 | 0.00 | 0.00 | 67 | 1012.0 |
| 20260505121537 | 57 | 302 | 1.0 | 14.0 | 0.00 | 0.00 | 0.00 | 67 | 1012.0 |
| 20260505121034 | 57 | 257 | 1.0 | 14.0 | 0.00 | 0.00 | 0.00 | 67 | 1011.9 |
| 20260505120532 | 57 | 256 | 2.0 | 10.0 | 0.00 | 0.00 | 0.00 | 66 | 1011.9 |
| 20260505120032 | 57 | 267 | 5.0 | 12.0 | 0.00 | 0.00 | 0.00 | 66 | 1011.8 |
| 20260505115531 | 57 | 260 | 5.0 | 12.0 | 0.00 | 0.00 | 0.00 | 67 | 1011.8 |
| 20260505115033 | 57 | 258 | 3.0 | 13.0 | 0.00 | 0.00 | 0.00 | 67 | 1011.8 |
| 20260505114538 | 57 | 251 | 6.0 | 13.0 | 0.00 | 0.00 | 0.00 | 67 | 1011.8 |
| 20260505114029 | 57 | 240 | 4.0 | 8.0 | 0.00 | 0.00 | 0.00 | 67 | 1011.7 |
| 20260505113528 | 58 | 232 | 1.0 | 9.0 | 0.00 | 0.00 | 0.00 | 67 | 1011.8 |
| 20260505113028 | 58 | 243 | 3.0 | 12.0 | 0.00 | 0.00 | 0.00 | 67 | 1011.7 |
| 20260505112527 | 58 | 244 | 4.0 | 10.0 | 0.00 | 0.00 | 0.00 | 67 | 1011.8 |
| 20260505112026 | 58 | 245 | 6.0 | 10.0 | 0.00 | 0.00 | 0.00 | 67 | 1011.8 |
| 20260505111532 | 58 | 237 | 5.0 | 13.0 | 0.00 | 0.00 | 0.00 | 66 | 1011.7 |
| 20260505111024 | 59 | 267 | 6.0 | 13.0 | 0.00 | 0.00 | 0.00 | 65 | 1011.7 |
| 20260505110525 | 58 | 31 | 1.0 | 12.0 | 0.00 | 0.00 | 0.00 | 65 | 1011.7 |
| 20260505102019 | 58 | 260 | 3.0 | 13.0 | 0.00 | 0.00 | 0.00 | 67 | 1011.3 |
| 20260505101518 | 58 | 250 | 2.0 | 19.0 | 0.00 | 0.00 | 0.00 | 66 | 1011.3 |
| 20260505101017 | 59 | 260 | 7.0 | 15.0 | 0.00 | 0.00 | 0.00 | 66 | 1011.2 |
| 20260505100517 | 59 | 257 | 4.0 | 16.0 | 0.00 | 0.00 | 0.00 | 66 | 1011.1 |
| 20260505100015 | 59 | 268 | 2.0 | 9.0 | 0.00 | 0.00 | 0.00 | 65 | 1011.2 |
| 20260505095515 | 60 | 261 | 1.0 | 9.0 | 0.00 | 0.00 | 0.00 | 64 | 1011.1 |
| 20260505095011 | 60 | 241 | 4.0 | 9.0 | 0.00 | 0.00 | 0.00 | 64 | 1011.0 |
| 20260505094512 | 60 | 256 | 1.0 | 8.0 | 0.00 | 0.00 | 0.00 | 63 | 1011.0 |
| 20260505094017 | 60 | 269 | 3.0 | 8.0 | 0.00 | 0.00 | 0.00 | 63 | 1011.1 |
| 20260505093510 | 60 | 254 | 4.0 | 10.0 | 0.00 | 0.00 | 0.00 | 63 | 1010.9 |
| 20260505093010 | 61 | 236 | 2.0 | 12.0 | 0.00 | 0.00 | 0.00 | 62 | 1010.9 |
| 20260505092509 | 61 | 265 | 3.0 | 12.0 | 0.00 | 0.00 | 0.00 | 63 | 1010.8 |
| 20260505092009 | 61 | 323 | 5.0 | 14.0 | 0.00 | 0.00 | 0.00 | 62 | 1010.9 |